Weather History for EICK - October, 2011

Change the Weather History Date:

Sunday, October 9, 2011

  Actual Average Record
Temperature  
Mean Temperature 58 °F -  
Max Temperature 64 °F 54 °F 66 °F (1999)
Min Temperature 53 °F 44 °F 39 °F (2008)
Degree Days  
Heating Degree Days 6    
Growing Degree Days 8 (Base 50)    
Moisture  
Dew Point 58 °F    
Average Humidity 96    
Maximum Humidity 100    
Minimum Humidity 88    
Precipitation  
Precipitation 0.00 in 0.16 in - ()
Sea Level Pressure  
Sea Level Pressure 30.10 in    
Wind  
Wind Speed 15 mph ()    
Max Wind Speed 23 mph    
Max Gust Speed 38 mph    
Visibility 6.9 miles    
Events      
Averages and records for this station are not official NWS values.
T = Trace of Precipitation, MM = Missing Value Source: Averaged Metar Reports

Daily Weather History Graph

Daily Weather History Graph

Search for Another Location

Airport or City:

Trip Planner

Search our weather history database for the weather conditions in past years. The results will help you decide how hot, cold, wet, or windy it might be!

Date:

Astronomy

Oct. 09, 2011 Rise Set
Actual Time 7:47 AM IST 6:54 PM IST
Civil Twilight 7:13 AM IST 7:27 PM IST
Nautical Twilight 6:34 AM IST 8:06 PM IST
Astronomical Twilight 5:55 AM IST 8:45 PM IST
Moon 5:34 PM IST (10/9) 5:06 AM IST (10/9)
Length of Visible Light 12h 14m
Length of Day
11h 06m
Waxing Gibbous, 94% of the Moon is Illuminated
Oct 9
Waxing Gibbous
Oct 12
Full
Oct 20
Last Quarter
Oct 26
New
Nov 2
First Quarter

Hourly Weather History & Observations

Time (IST) Temp. Dew Point Humidity Pressure Visibility Wind Dir Wind Speed Gust Speed Precip Events Conditions
12:00 AM 55.4 °F 55.4 °F 100% 30.21 in 6.2 mi SW 10.4 mph - N/A   Mostly Cloudy
12:30 AM 55.4 °F 55.4 °F 100% 30.21 in 6.2 mi WSW 9.2 mph - N/A   Mostly Cloudy
1:00 AM 54 °F 54 °F 100% 30.22 in 16 mi SW 11.2 mph - -   Mostly Cloudy
1:00 AM 55.4 °F 55.4 °F 100% 30.21 in 6.2 mi SW 10.4 mph - N/A   Mostly Cloudy
1:30 AM 55.4 °F 55.4 °F 100% 30.18 in 6.2 mi SW 15.0 mph - N/A   Mostly Cloudy
2:00 AM 55.4 °F 55.4 °F 100% 30.18 in 6.2 mi SW 10.4 mph - N/A   Mostly Cloudy
2:30 AM 57.2 °F 57.2 °F 100% 30.18 in 6.2 mi WSW 11.5 mph - N/A   Overcast
3:00 AM 57.2 °F 57.2 °F 100% 30.18 in 6.2 mi WSW 11.5 mph - N/A   Overcast
3:30 AM 59.0 °F 57.2 °F 94% 30.15 in 6.2 mi WSW 11.5 mph 24.2 mph N/A   Overcast
4:00 AM 57.2 °F 57.2 °F 100% 30.15 in 6.2 mi WSW 12.7 mph - N/A   Overcast
4:30 AM 59.0 °F 57.2 °F 94% 30.12 in 6.2 mi WSW 18.4 mph 31.1 mph N/A   Mostly Cloudy
5:00 AM 59.0 °F 57.2 °F 94% 30.12 in 6.2 mi WSW 20.7 mph 33.4 mph N/A   Mostly Cloudy
5:30 AM 59.0 °F 57.2 °F 94% 30.09 in 6.2 mi WSW 21.9 mph 34.5 mph N/A   Mostly Cloudy
6:00 AM 59.0 °F 57.2 °F 94% 30.09 in 6.2 mi WSW 19.6 mph - N/A   Mostly Cloudy
6:30 AM 59.0 °F 57.2 °F 94% 30.09 in 6.2 mi WSW 20.7 mph 32.2 mph N/A   Mostly Cloudy
7:00 AM 58 °F 58 °F 100% 30.10 in 16 mi WSW 20.1 mph - -   Overcast
7:00 AM 59.0 °F 57.2 °F 94% 30.09 in 6.2 mi WSW 20.7 mph 32.2 mph N/A   Mostly Cloudy
7:30 AM 59.0 °F 57.2 °F 94% 30.09 in 6.2 mi WSW 20.7 mph - N/A   Mostly Cloudy
8:00 AM 57.2 °F 57.2 °F 100% 30.09 in 6.2 mi WSW 18.4 mph - N/A   Overcast
8:30 AM 57.2 °F 57.2 °F 100% 30.09 in 6.2 mi SW 15.0 mph - N/A   Overcast
9:00 AM 57.2 °F 57.2 °F 100% 30.09 in 6.2 mi SW 13.8 mph - N/A   Overcast
9:30 AM 59.0 °F 59.0 °F 100% 30.09 in 6.2 mi SW 15.0 mph - N/A   Overcast
10:00 AM 59.0 °F 59.0 °F 100% 30.09 in 6.2 mi WSW 13.8 mph - N/A   Overcast
10:30 AM 59.0 °F 59.0 °F 100% 30.09 in 6.2 mi WSW 15.0 mph 28.8 mph N/A   Overcast
11:00 AM 59.0 °F 59.0 °F 100% 30.09 in 6.2 mi WSW 19.6 mph - N/A   Mostly Cloudy
11:30 AM 60.8 °F 59.0 °F 94% 30.09 in 6.2 mi WSW 19.6 mph - N/A   Overcast
12:00 PM 60.8 °F 60.8 °F 100% 30.09 in 6.2 mi WSW 17.3 mph - N/A   Overcast
12:30 PM 62.6 °F 60.8 °F 94% 30.09 in 6.2 mi WSW 16.1 mph - N/A   Mostly Cloudy
1:00 PM 62 °F 61 °F 94% 30.10 in 12 mi West 17.9 mph - -   Mostly Cloudy
1:00 PM 62.6 °F 60.8 °F 94% 30.09 in 6.2 mi West 18.4 mph - N/A   Scattered Clouds
1:30 PM 62.6 °F 60.8 °F 94% 30.09 in 6.2 mi West 21.9 mph - N/A   Scattered Clouds
2:00 PM 64.4 °F 60.8 °F 88% 30.09 in 6.2 mi West 20.7 mph - N/A   Mostly Cloudy
2:30 PM 64.4 °F 60.8 °F 88% 30.06 in 6.2 mi West 21.9 mph - N/A   Mostly Cloudy
3:00 PM 62.6 °F 60.8 °F 94% 30.06 in 6.2 mi WSW 16.1 mph - N/A   Mostly Cloudy
3:30 PM 62.6 °F 60.8 °F 94% 30.06 in 6.2 mi West 19.6 mph - N/A   Mostly Cloudy
4:00 PM 62.6 °F 59.0 °F 88% 30.06 in 6.2 mi WSW 20.7 mph - N/A   Scattered Clouds
4:30 PM 62.6 °F 59.0 °F 88% 30.06 in 6.2 mi WSW 17.3 mph - N/A   Mostly Cloudy
5:00 PM 60.8 °F 59.0 °F 94% 30.06 in 6.2 mi WSW 17.3 mph - N/A   Scattered Clouds
5:30 PM 59.0 °F 59.0 °F 100% 30.06 in 6.2 mi WSW 18.4 mph - N/A   Mostly Cloudy
6:00 PM 59.0 °F 59.0 °F 100% 30.06 in 6.2 mi WSW 19.6 mph - N/A   Mostly Cloudy
6:30 PM 59.0 °F 57.2 °F 94% 30.06 in 6.2 mi WSW 18.4 mph - N/A   Mostly Cloudy
7:00 PM 58 °F 57 °F 96% 30.06 in 19 mi WSW 20.1 mph - -   Mostly Cloudy
7:00 PM 59.0 °F 57.2 °F 94% 30.06 in 6.2 mi WSW 20.7 mph - N/A   Mostly Cloudy
7:30 PM 57.2 °F 57.2 °F 100% 30.06 in 6.2 mi WSW 21.9 mph 33.4 mph N/A   Scattered Clouds
8:00 PM 57.2 °F 55.4 °F 94% 30.06 in 6.2 mi WSW 18.4 mph - N/A   Mostly Cloudy
8:30 PM 57.2 °F 55.4 °F 94% 30.06 in 6.2 mi WSW 23.0 mph 36.8 mph N/A   Mostly Cloudy
9:00 PM 57.2 °F 55.4 °F 94% 30.06 in 6.2 mi WSW 19.6 mph - N/A   Mostly Cloudy
9:30 PM 57.2 °F 55.4 °F 94% 30.04 in 6.2 mi WSW 23.0 mph 38.0 mph N/A   Mostly Cloudy
10:00 PM 57.2 °F 55.4 °F 94% 30.04 in 6.2 mi WSW 20.7 mph 33.4 mph N/A   Mostly Cloudy
10:30 PM 57.2 °F 57.2 °F 100% 30.04 in 6.2 mi WSW 20.7 mph - N/A   Mostly Cloudy
11:00 PM 57.2 °F 55.4 °F 94% 30.04 in 6.2 mi WSW 19.6 mph - N/A   Mostly Cloudy
11:30 PM 57.2 °F 55.4 °F 94% 30.04 in 6.2 mi WSW 20.7 mph - N/A   Mostly Cloudy